Wind_Speed
80 82 84 83 82 78 73 68 64 61 57 54 52 52 53 54 52 50 48 47 47 47 48 48 48 48 50 52 53 53 52 52 52 51 50 52 55 58 63 71 79 86 92 95 94 95 98 101 100 100 101 101 100 100 98 97 96 95 94 93 93 91 88 86 87 85 81 79 77 75 76 77 75 71 68 65 63 60 57 57 59 57 54 53 50 48 48
82 84 84 83 81 76 71 67 63 59 55 51 48 47 48 50 51 50 49 46 44 44 44 45 45 45 47 49 50 50 49 49 49 49 49 51 54 56 59 66 74 82 89 95 97 96 98 100 99 98 99 100 99 99 98 97 94 92 91 91 91 91 90 88 88 86 83 82 81 78 77 77 72 67 64 62 61 61 60 60 60 58 55 53 51 49 50
84 85 85 83 79 74 70 66 62 58 55 51 47 45 44 46 48 49 51 49 45 43 42 41 42 42 44 46 47 46 46 45 46 46 46 49 52 54 56 61 69 78 85 92 96 95 96 99 98 96 99 100 99 98 98 96 93 90 89 89 89 89 89 89 89 88 84 82 81 75 71 70 66 62 61 61 62 63 61 60 60 57 55 53 52 51 50
85 86 84 81 76 71 68 65 61 57 54 51 49 46 44 44 44 44 47 49 47 44 42 40 39 40 41 43 44 43 42 41 42 43 43 46 50 52 55 58 65 74 81 88 94 94 94 96 98 98 99 100 99 98 97 95 92 90 89 88 86 85 87 87 87 87 84 82 79 72 68 68 66 63 62 62 63 63 62 61 58 56 56 54 52 52 49
86 85 83 78 73 69 66 62 59 56 54 52 50 47 45 46 45 42 42 44 44 43 41 38 37 37 38 40 40 40 39 38 39 39 40 43 48 50 53 57 63 70 77 84 90 93 93 95 99 100 99 100 99 98 97 95 92 90 90 88 85 85 86 85 84 86 86 83 79 75 72 71 69 66 64 63 63 62 61 60 58 57 57 55 52 51 47
85 84 81 76 71 67 64 60 57 55 54 53 51 49 47 47 48 47 43 42 42 42 40 37 36 35 35 36 37 37 37 35 35 36 37 40 45 48 51 56 61 67 74 79 85 90 92 95 100 101 99 99 99 98 98 95 92 91 90 88 85 84 85 85 84 85 86 84 82 80 77 74 72 70 66 63 63 62 59 59 60 59 58 55 53 51 47
84 83 79 74 69 66 62 58 55 54 53 53 51 49 48 47 49 50 48 44 41 40 38 36 35 33 33 33 33 34 34 32 32 32 33 37 43 47 49 53 59 65 70 75 80 86 91 93 98 101 99 99 100 99 98 97 94 91 90 87 85 83 84 84 83 83 85 87 86 83 79 75 73 71 67 63 63 62 61 62 63 61 59 56 53 50 48
84 82 77 72 68 64 60 56 54 52 52 52 51 50 49 47 47 48 48 45 41 39 36 34 33 32 31 30 30 30 30 29 29 28 29 33 39 44 47 51 57 62 66 71 76 82 88 90 96 101 100 100 101 99 98 99 95 91 90 87 84 83 84 84 81 81 85 86 85 83 81 78 75 73 70 65 62 63 65 66 65 63 62 58 54 52 52
84 81 76 71 67 63 58 55 53 52 51 51 51 51 49 47 46 46 46 43 40 37 35 33 32 31 29 28 27 27 27 26 26 25 26 30 36 41 45 49 54 59 63 68 72 78 85 88 93 99 101 101 102 99 98 98 95 92 91 88 84 83 84 83 81 81 83 82 82 83 82 78 75 73 70 66 63 64 66 67 65 64 63 61 57 55 55
84 80 75 70 66 62 57 54 52 52 51 50 50 50 49 46 46 45 45 42 39 36 34 33 31 29 28 26 24 24 24 23 23 22 23 27 33 38 42 46 51 55 60 64 68 75 82 85 90 98 102 102 101 98 97 97 95 93 92 88 84 84 85 84 82 82 82 79 80 83 80 75 73 71 70 69 66 66 67 68 67 66 66 64 61 57 56
83 79 74 69 65 60 56 53 52 52 51 51 50 50 49 46 45 44 43 41 39 37 35 32 31 28 26 25 23 22 21 20 20 20 21 25 30 34 39 43 47 52 56 60 65 72 78 81 87 95 101 102 101 97 96 96 94 93 92 88 85 85 86 85 83 83 81 79 80 83 79 75 74 72 72 74 74 73 71 70 70 69 68 66 64 61 60
82 78 72 68 63 58 54 52 52 51 52 51 51 51 49 47 45 44 42 41 39 37 35 32 30 28 26 23 22 20 19 17 17 17 19 23 27 31 36 40 44 48 52 57 62 68 74 78 83 92 98 101 100 97 95 95 94 94 93 89 86 86 86 85 84 83 81 78 80 81 78 75 74 73 76 80 80 78 75 72 73 74 72 69 68 66 65
80 76 71 66 61 56 52 51 51 51 51 51 51 50 49 47 46 44 43 41 38 36 35 32 30 28 26 23 21 19 17 15 15 15 16 20 24 27 32 36 40 44 48 53 59 65 71 74 79 87 95 98 98 96 95 95 94 94 94 91 88 87 86 85 84 82 80 79 81 82 79 76 76 78 81 83 81 78 77 76 78 79 76 73 72 71 70
78 74 69 63 58 54 50 49 50 50 50 50 50 50 49 47 46 45 45 43 39 36 34 32 30 28 26 24 21 19 17 14 13 13 14 17 21 24 29 33 37 40 45 50 55 61 67 71 75 82 90 95 97 96 95 94 94 95 95 92 89 88 87 86 86 84 82 83 83 83 81 79 82 84 86 86 84 82 80 81 82 80 77 75 74 73 73
76 71 66 60 55 51 49 48 48 49 49 49 49 49 48 47 47 46 45 44 41 37 34 31 29 28 26 24 22 19 17 15 13 12 12 15 18 21 26 30 34 38 42 46 52 58 63 68 71 77 86 92 96 95 95 95 94 95 96 94 92 91 89 88 88 87 86 86 86 86 85 84 86 87 88 88 87 85 83 83 83 81 79 79 77 73 74
74 69 63 57 52 48 47 47 47 47 47 47 47 48 48 48 47 47 46 45 43 39 36 33 30 27 25 24 22 19 17 15 13 11 11 12 14 18 23 27 31 35 38 43 49 54 60 65 68 73 81 90 94 95 95 95 96 97 97 96 95 94 92 90 90 89 89 89 89 89 89 88 88 88 88 89 87 85 84 83 83 82 82 84 82 78 75
72 66 59 53 49 46 45 45 45 45 45 45 46 47 48 48 48 48 48 46 44 42 39 36 33 29 26 23 21 19 17 15 13 11 9 10 12 16 20 24 28 32 35 40 46 51 57 62 65 70 78 86 92 94 93 95 97 98 98 97 97 95 93 92 92 91 90 90 91 91 90 89 89 88 88 88 86 85 84 83 83 84 85 85 86 82 75
69 63 56 50 45 43 43 43 43 43 43 43 45 46 47 48 49 49 48 47 46 44 42 39 37 33 29 26 22 20 17 15 12 10 8 8 9 13 17 22 26 29 33 38 43 49 54 59 63 70 76 83 88 91 91 94 98 99 98 97 97 96 95 93 93 93 91 91 93 92 90 89 89 89 88 87 86 86 87 87 86 86 85 85 84 80 71
66 59 52 46 43 41 41 41 41 41 41 42 44 45 46 48 49 49 48 47 47 46 44 41 39 36 33 29 25 21 18 14 11 9 7 6 7 10 15 19 23 27 31 35 41 47 52 57 63 69 74 78 83 86 88 91 97 99 98 99 99 98 97 95 94 93 92 93 94 93 91 91 91 90 89 87 88 89 90 90 90 89 85 83 82 76 68
63 55 48 43 40 39 39 39 39 39 39 41 43 44 45 47 48 49 48 47 47 46 45 43 41 39 36 32 28 24 21 17 12 9 5 3 5 8 12 17 21 25 28 33 38 44 50 55 61 66 70 73 76 80 84 88 94 99 100 101 102 101 100 99 97 95 93 94 95 95 93 93 93 92 91 90 90 91 91 91 91 90 86 82 79 74 69
59 51 44 40 37 37 37 38 38 38 39 41 42 44 45 46 48 48 47 46 46 46 45 44 43 41 38 35 31 27 24 21 17 12 7 3 2 6 10 14 18 22 26 30 35 40 45 51 57 63 67 69 72 76 81 85 92 98 101 101 102 103 102 101 100 98 97 97 98 97 95 95 95 95 95 95 93 92 92 92 92 91 87 81 76 73 69
56 48 41 37 35 35 36 36 36 37 38 40 42 43 44 45 46 46 45 44 44 45 45 46 45 43 41 38 34 31 27 24 20 15 11 6 2 2 7 10 14 19 23 28 32 36 41 48 54 58 62 65 68 72 76 82 89 97 101 102 103 103 103 103 102 100 99 99 99 98 97 97 97 97 97 98 96 94 94 94 93 91 87 80 75 72 70
52 44 38 34 33 33 34 34 35 36 38 39 41 42 43 44 43 43 42 42 43 44 45 45 46 45 43 40 38 34 30 27 23 18 14 9 5 2 4 8 11 15 20 25 30 33 38 44 48 52 56 61 63 66 71 77 85 95 102 103 104 104 105 105 104 102 99 99 99 99 99 98 98 98 98 98 98 96 95 94 92 90 87 82 77 74 72
49 42 36 32 31 31 32 33 34 35 36 39 40 41 42 41 40 40 40 40 41 42 43 44 45 45 45 43 40 37 33 30 26 22 17 12 8 5 4 6 9 12 17 22 26 31 35 39 43 47 51 55 59 62 66 72 80 92 101 104 105 106 107 107 107 105 102 102 101 100 100 99 98 98 99 99 100 99 97 96 94 92 88 84 79 77 75
46 40 35 30 29 30 30 31 32 34 35 37 39 39 39 39 38 37 37 38 39 39 41 42 43 44 44 43 41 39 36 33 29 24 20 15 11 8 6 5 8 11 14 19 23 28 32 35 38 42 46 49 54 58 61 66 75 87 98 104 105 107 109 110 110 108 106 105 103 101 99 98 99 100 101 100 100 101 100 99 97 95 91 85 80 78 77
43 38 33 28 27 28 28 28 31 33 34 35 36 36 35 35 34 34 36 37 38 38 38 39 40 41 42 42 41 40 38 35 31 28 23 18 14 10 8 7 7 9 13 17 20 24 29 33 36 39 41 44 49 53 57 62 70 82 95 102 105 107 110 112 112 110 108 106 104 103 101 99 101 102 102 100 100 100 100 100 98 95 92 87 81 78 78
39 36 32 27 25 26 27 26 28 31 31 32 33 33 32 31 31 32 33 35 37 37 38 38 38 39 40 41 41 39 38 36 34 30 25 21 17 14 11 9 8 9 11 14 18 21 25 30 34 37 39 41 45 49 53 58 66 78 91 100 105 107 110 112 112 111 109 107 106 106 104 103 103 103 101 99 99 98 97 97 97 94 90 87 83 80 79
36 34 31 26 23 24 26 25 26 30 30 29 29 30 29 28 27 28 30 32 34 36 37 37 37 38 38 39 39 38 38 37 35 32 29 25 22 18 15 12 9 9 10 12 15 19 22 26 30 35 38 41 44 47 50 54 61 73 87 98 104 107 109 111 112 111 109 107 106 106 104 103 103 102 99 98 97 95 94 94 93 90 88 86 85 83 81
33 31 30 26 22 22 24 23 24 27 28 26 26 27 27 26 25 25 27 29 31 32 34 35 36 36 37 37 37 37 37 37 36 34 31 29 26 23 20 16 12 9 9 10 12 15 19 23 27 31 35 39 43 47 50 52 58 68 81 94 102 106 108 110 111 111 110 108 106 104 102 101 100 99 97 97 95 94 93 92 90 88 87 87 86 85 83
31 28 28 27 22 20 21 22 22 25 27 25 23 25 25 24 22 23 25 26 27 28 30 31 33 34 34 35 36 37 37 37 36 35 33 31 30 28 25 22 18 13 10 9 10 12 15 19 24 28 32 36 40 44 48 52 57 65 75 87 97 103 106 108 109 110 110 109 106 104 102 100 98 96 95 94 92 91 90 89 87 87 88 88 88 87 85
29 25 25 26 24 20 19 19 19 21 24 23 21 21 22 22 20 20 22 23 24 25 27 28 29 31 31 32 33 34 36 37 37 36 35 34 33 31 29 27 23 19 14 11 9 10 12 15 19 24 29 33 38 42 45 51 57 64 71 79 90 98 102 105 107 109 109 109 107 103 100 99 98 96 93 91 90 88 87 85 84 85 87 88 88 87 85
28 23 22 24 24 21 18 17 16 17 19 20 19 18 20 21 19 17 19 20 21 21 23 25 26 27 28 29 29 31 33 36 37 37 38 37 36 35 33 30 27 23 19 15 12 10 10 11 14 18 23 28 34 38 43 48 55 62 68 76 86 94 100 103 106 108 109 109 107 102 99 97 96 94 91 89 88 87 87 86 84 84 85 87 87 86 85
27 22 20 21 23 22 19 16 14 14 15 17 17 16 17 19 18 16 16 17 17 19 20 22 23 24 25 26 27 29 31 33 34 36 38 39 38 37 35 33 31 28 25 20 16 13 11 10 11 13 17 23 28 34 39 45 51 58 65 74 83 92 98 102 105 107 109 110 107 103 99 97 95 92 89 86 85 85 85 85 84 83 84 85 86 86 86
26 22 19 18 20 21 21 19 15 14 14 15 15 15 14 15 16 15 13 13 14 16 18 19 21 23 24 25 26 28 29 31 32 34 36 38 37 36 35 34 32 30 28 24 21 18 14 11 10 10 13 17 22 28 34 40 46 52 60 69 78 87 95 100 103 105 108 109 107 103 100 97 94 91 87 85 84 84 84 84 84 83 83 84 85 85 85
25 22 19 18 18 18 19 18 16 14 14 15 15 14 13 12 12 13 12 12 12 13 14 16 18 21 23 23 24 25 27 29 31 33 34 35 36 35 35 34 32 30 28 26 24 22 19 15 12 10 8 11 17 22 28 34 40 46 53 62 71 80 89 95 100 102 105 106 104 101 98 95 91 88 86 85 84 83 84 84 84 84 83 83 84 85 85
25 22 19 18 17 15 16 18 17 15 15 15 15 14 14 13 12 10 10 10 10 10 12 14 15 17 19 19 20 22 23 25 28 30 32 33 35 35 35 34 32 30 30 29 27 24 22 19 17 13 8 6 10 16 23 28 34 40 47 55 64 73 82 90 96 99 101 102 102 100 98 95 91 87 86 86 84 83 83 83 83 83 83 83 83 84 85
25 22 19 17 15 13 13 17 19 19 19 18 15 14 13 15 15 12 9 8 9 9 10 12 12 13 15 15 16 17 18 20 23 26 28 30 31 32 32 32 31 30 30 28 26 24 23 21 20 16 11 6 5 10 16 22 29 35 42 49 57 66 74 83 91 96 100 101 101 101 99 96 92 89 88 86 85 84 83 83 83 83 83 83 84 84 85
25 23 20 18 15 13 13 16 19 22 22 19 15 12 12 14 16 15 11 9 9 9 10 10 11 12 12 12 12 12 13 15 18 20 22 25 26 27 27 27 27 27 27 26 23 22 21 20 19 16 12 8 5 5 10 16 22 29 36 44 51 59 68 76 85 92 97 100 101 101 99 97 94 91 88 87 85 84 83 82 83 83 83 83 83 84 86
27 25 22 19 17 15 16 17 20 23 23 18 13 10 11 13 15 15 13 11 11 10 10 10 10 10 11 11 11 10 10 10 12 14 16 19 20 22 22 23 23 24 23 22 20 19 19 18 17 16 13 10 7 5 5 10 16 22 29 37 44 53 61 70 79 87 94 98 100 100 99 98 95 92 90 87 85 83 82 81 81 81 81 81 82 84 86
28 26 24 21 19 17 18 19 20 22 23 20 15 11 10 11 14 14 12 13 14 13 11 10 10 10 11 12 11 10 8 7 6 8 10 12 14 16 17 18 19 20 19 17 17 17 17 18 18 18 16 13 10 6 3 5 10 15 22 29 37 45 54 63 71 80 88 94 98 99 99 98 96 94 91 89 87 85 83 82 81 81 81 82 84 86 87
29 27 25 23 21 20 19 19 19 19 21 21 19 16 14 12 13 14 14 15 18 18 15 12 10 10 11 13 11 9 8 7 5 3 4 6 9 10 11 12 14 15 14 14 14 15 16 17 18 16 15 13 11 8 5 2 5 10 16 22 30 38 46 54 64 73 81 88 94 97 98 97 97 95 93 90 88 87 85 83 83 83 83 84 85 86 87
28 27 26 24 23 21 20 20 19 19 19 19 19 19 17 15 14 14 15 17 19 20 18 15 12 11 13 15 15 12 9 8 7 5 3 1 3 5 6 7 9 10 10 11 12 13 14 15 14 12 11 10 9 8 6 4 2 6 11 16 23 30 37 46 55 64 73 81 88 93 95 96 95 95 93 91 90 89 87 85 84 84 84 84 84 84 84
30 30 29 27 25 23 22 21 21 21 20 20 19 19 18 17 16 16 17 18 20 21 20 18 15 13 14 16 17 16 14 12 11 10 8 5 3 2 2 3 4 5 6 7 8 8 9 10 9 7 7 6 5 5 5 4 2 4 8 12 18 23 30 37 46 55 64 73 82 88 91 93 93 93 92 91 91 90 89 87 86 84 84 83 83 83 84
31 29 27 26 25 24 24 23 23 22 21 21 20 19 18 18 18 18 18 19 21 21 21 21 20 19 19 19 19 19 18 15 14 13 12 11 9 8 6 5 5 4 4 4 4 3 4 5 5 3 3 1 1 3 4 3 2 4 6 10 14 18 24 30 37 45 54 63 72 80 86 89 91 92 92 92 91 91 90 88 86 85 84 84 84 84 85
30 27 26 25 24 24 24 23 23 22 21 21 20 20 19 18 18 18 18 19 20 22 23 23 24 25 26 25 24 22 21 19 17 16 16 15 15 14 12 11 10 8 7 6 6 6 5 4 3 2 1 2 2 2 3 3 3 4 6 9 12 15 20 25 30 37 44 52 61 70 78 84 88 91 92 93 92 92 91 90 88 86 85 85 85 86 87
31 30 29 28 27 26 26 25 23 22 21 20 20 20 19 19 18 18 18 18 19 20 22 24 25 27 28 28 27 26 24 24 22 21 19 18 18 18 17 16 14 13 12 11 11 11 10 8 7 5 4 3 4 4 4 4 5 6 7 9 11 13 17 21 26 31 37 44 51 59 68 76 83 87 90 91 91 91 91 91 90 88 87 86 86 87 88
31 31 30 30 29 29 28 27 26 24 23 21 20 19 18 18 18 19 19 19 19 19 20 22 24 25 26 27 27 27 26 26 26 25 24 23 22 21 21 21 20 18 17 17 17 16 15 12 11 9 7 6 6 7 7 7 7 8 8 9 11 12 14 18 22 26 32 37 43 50 58 67 75 82 86 88 89 91 91 92 92 91 89 88 88 88 87
31 31 31 30 30 28 26 25 25 24 24 23 23 22 21 21 20 20 20 20 19 20 20 21 22 23 24 25 26 26 26 26 25 25 25 26 26 25 24 24 24 23 22 22 21 21 20 18 16 14 12 11 10 10 10 10 10 9 9 10 11 12 14 16 19 23 27 32 37 43 50 57 65 73 80 85 88 90 91 92 93 93 92 91 90 89 87
31 31 31 30 29 28 27 26 25 24 23 23 23 23 23 23 23 23 23 22 22 21 21 22 22 23 24 24 25 25 26 26 26 25 24 25 26 27 27 27 27 27 27 27 26 25 24 23 21 19 18 16 15 14 12 12 12 12 12 12 12 14 15 16 18 20 24 28 32 37 43 49 56 64 71 78 83 87 89 90 92 94 95 94 93 91 89
30 29 30 30 30 30 29 29 28 27 26 25 24 24 23 23 23 23 23 24 24 24 23 23 23 24 24 25 25 25 25 25 26 26 26 25 25 26 28 29 29 29 29 30 30 30 29 27 26 24 22 21 21 20 18 16 15 15 15 14 14 16 17 18 19 20 22 25 28 33 37 43 49 55 62 69 76 82 85 88 90 92 94 95 95 94 92
29 28 29 31 32 32 31 31 30 30 29 29 28 27 26 25 25 24 23 23 23 24 24 24 24 24 25 25 26 26 26 26 26 26 26 25 24 24 26 28 30 31 31 31 32 32 33 32 31 29 27 26 25 25 24 22 20 19 18 17 17 18 20 20 21 22 22 23 26 29 33 37 42 48 54 60 67 74 80 84 88 90 92 94 95 95 95
29 28 30 32 33 32 31 31 32 32 31 31 31 30 29 29 28 27 26 25 24 23 23 23 23 23 23 23 24 25 26 27 28 28 28 27 26 25 25 26 28 30 32 33 33 34 35 36 36 35 33 31 30 29 28 27 26 24 23 21 20 21 22 23 23 24 24 25 26 27 30 33 37 41 47 52 59 65 72 78 83 87 90 92 94 95 96
Wind_Direction
326 326 326 326 325 325 325 325 325 323 321 320 317 315 312 309 307 304 301 297 294 290 287 283 279 275 272 270 268 267 265 263 261 257 251 246 241 235 230 227 226 226 226 227 226 224 223 223 222 222 223 223 224 225 225 224 225 226 228 229 230 231 230 229 230 230 228 227 225 223 223 225 224 224 225 227 230 230 229 230 233 233 233 235 236 236 237
328 328 328 328 328 328 328 328 327 325 323 321 319 317 315 312 309 307 303 299 295 292 288 286 283 279 275 272 269 268 265 261 258 254 250 245 241 236 230 226 225 224 223 224 225 223 222 222 222 221 222 222 222 224 224 223 223 224 225 227 228 230 230 229 230 230 228 227 226 223 223 226 225 224 225 227 229 230 229 229 232 233 232 234 235 235 236
330 330 330 330 331 330 330 329 328 327 325 324 322 321 319 316 314 313 309 305 302 298 294 290 287 282 277 274 272 269 265 261 258 253 247 243 240 237 231 225 223 223 222 222 223 223 220 220 221 219 220 221 220 221 223 222 221 221 222 224 225 226 229 229 230 231 229 229 229 227 226 229 228 225 225 225 227 229 229 229 231 233 233 234 235 235 236
332 332 332 332 333 332 332 331 329 328 327 326 325 324 321 318 315 315 313 310 308 305 302 297 292 286 281 277 274 271 267 262 257 253 247 242 239 236 231 226 223 222 221 220 222 223 220 218 219 219 219 219 218 219 221 221 220 219 220 222 222 223 226 228 229 232 231 230 231 229 226 227 228 226 224 224 225 226 228 229 230 231 233 233 234 235 235
333 333 333 334 335 335 334 332 331 331 329 328 327 326 325 323 319 317 315 313 312 309 305 301 295 289 285 281 278 275 271 264 258 253 246 241 238 234 230 226 222 221 221 219 220 222 220 217 218 218 217 218 217 217 218 219 218 218 219 219 219 220 223 224 226 229 231 230 230 228 225 224 225 224 222 222 224 225 226 228 229 229 231 231 232 233 232
334 335 335 336 337 336 334 333 333 333 330 329 329 330 330 329 326 322 320 320 319 315 310 306 301 294 288 285 282 278 274 268 261 253 245 240 237 233 229 226 223 220 220 219 218 220 219 216 217 218 216 216 216 215 216 217 217 217 217 216 216 218 220 221 221 225 228 228 228 226 224 223 224 223 220 219 221 223 224 227 228 228 229 229 229 230 228
335 336 337 338 338 337 335 334 334 333 331 330 331 333 333 333 331 328 326 326 325 320 316 312 306 300 294 289 285 281 278 272 264 255 245 239 236 233 229 225 223 221 219 219 217 218 219 216 215 217 216 215 215 214 214 215 215 216 216 214 214 216 219 219 219 221 226 227 226 226 224 222 223 224 222 218 219 221 221 223 226 227 228 227 227 227 225
337 338 339 339 340 338 336 335 335 334 333 333 333 335 336 335 334 332 330 330 328 324 322 318 311 305 301 295 291 286 280 275 267 258 247 239 234 232 229 224 223 221 219 218 216 216 218 216 214 215 216 215 215 213 212 213 212 213 214 212 212 214 218 218 217 218 222 225 226 226 224 222 221 222 222 219 218 220 221 222 223 225 227 226 225 226 225
339 339 340 341 340 338 337 336 336 334 334 335 335 337 338 337 335 334 333 332 331 328 327 324 317 312 307 302 297 290 284 277 270 260 248 240 234 231 229 225 223 221 218 217 216 215 217 215 213 214 215 215 214 212 211 212 210 210 212 211 209 212 216 217 216 216 219 222 225 227 226 223 222 223 223 221 217 219 223 224 223 224 226 226 224 224 226
340 340 341 341 340 339 337 337 337 336 336 337 337 338 340 339 338 338 338 336 335 334 333 329 323 319 314 308 302 295 289 283 274 262 249 240 235 231 229 226 223 221 218 217 215 214 215 215 212 212 214 215 214 211 210 211 209 209 211 209 207 210 214 215 215 215 216 218 222 226 225 224 222 222 224 223 219 217 221 224 223 222 224 225 224 223 225
341 341 341 342 341 339 338 338 338 337 337 338 339 340 342 343 343 344 343 342 340 339 338 334 329 325 320 314 308 301 296 288 277 264 250 241 236 231 229 226 223 221 218 216 214 213 214 214 212 212 213 214 214 211 209 210 208 208 209 208 206 208 212 213 213 214 214 214 218 223 223 221 220 219 221 222 220 216 216 219 222 221 221 224 224 222 223
341 341 342 342 341 339 339 340 339 339 339 340 342 343 344 346 347 348 349 349 346 342 341 339 334 330 325 319 315 308 302 294 280 266 251 242 236 231 228 226 223 220 218 216 214 213 214 213 212 211 212 214 213 211 209 208 207 207 207 207 206 207 210 212 212 213 212 211 215 220 220 219 218 217 218 220 220 217 214 215 219 220 218 220 222 222 221
341 342 342 342 340 339 340 341 340 340 341 342 344 345 347 349 351 352 354 354 352 348 345 343 338 335 331 327 323 317 309 300 285 268 251 241 236 231 227 226 223 220 217 216 215 214 214 213 211 211 212 213 213 211 208 207 206 206 206 205 205 207 209 211 211 212 212 211 212 216 217 217 216 215 217 219 220 218 216 215 219 221 218 216 219 222 221
341 342 342 341 340 340 342 342 341 342 343 343 345 348 350 352 354 356 357 358 357 355 351 347 344 341 338 335 331 325 317 308 291 272 255 242 235 230 226 224 223 220 216 215 214 213 213 213 211 210 211 213 213 211 208 206 205 205 206 204 204 206 208 209 210 210 210 210 211 213 214 215 215 215 216 218 219 218 217 216 218 222 221 219 218 220 222
342 342 342 341 340 341 343 343 343 344 344 345 347 350 353 355 357 359 0 0 0 360 358 355 351 348 344 341 338 332 325 316 301 282 263 246 236 229 225 223 221 218 215 214 213 212 212 212 211 210 210 212 213 211 208 206 204 205 205 204 204 205 207 209 209 209 209 209 209 210 211 213 215 215 216 218 219 219 218 217 217 219 222 223 219 218 221
342 342 342 341 340 342 344 345 345 345 345 347 351 354 356 358 360 1 2 2 2 2 3 1 359 356 352 347 343 338 331 323 310 293 271 251 237 228 224 222 220 217 213 211 211 211 211 211 210 209 209 210 212 211 208 205 204 204 204 202 203 205 206 207 209 209 208 208 209 209 209 211 214 215 217 218 219 219 219 219 219 218 220 224 222 219 220
342 342 342 340 341 343 345 347 348 347 347 351 355 357 0 2 3 3 3 3 4 5 5 5 5 4 1 357 352 346 339 331 320 304 283 261 241 228 222 219 217 215 212 209 209 209 210 210 209 208 209 210 211 211 208 204 204 204 203 201 202 204 205 207 208 209 208 208 209 209 209 209 212 214 216 218 219 221 221 221 221 220 220 223 225 223 223
342 342 341 340 341 344 347 349 349 348 350 355 359 2 5 6 6 6 6 6 6 6 7 7 8 8 7 5 2 357 349 342 333 319 299 273 247 230 221 217 214 212 209 207 206 207 208 209 208 208 209 210 211 211 208 204 203 204 202 201 201 203 205 207 209 209 208 208 210 210 209 209 211 213 215 216 218 220 222 222 222 221 220 222 226 226 225
343 342 341 340 342 345 349 351 350 351 355 360 3 6 9 9 9 9 9 9 9 8 8 9 10 10 10 10 9 8 3 356 347 335 314 282 245 225 217 214 211 209 207 205 205 205 206 207 207 207 209 210 210 210 208 205 203 203 202 201 201 202 204 206 209 209 209 209 210 210 208 208 210 212 213 215 217 219 221 222 223 223 221 220 224 226 225
342 342 340 340 343 347 350 352 352 355 0 4 8 10 11 11 12 13 13 13 12 12 12 13 13 13 13 13 13 14 13 10 6 359 342 295 238 213 208 208 207 205 204 203 204 205 205 205 206 208 210 211 210 210 208 205 202 203 203 201 200 201 203 205 208 209 209 210 211 210 209 208 208 210 211 214 216 219 221 223 225 225 223 221 221 224 223
342 341 340 341 344 348 352 353 356 1 6 9 11 13 13 14 14 14 14 16 17 17 18 18 17 17 17 16 17 18 19 19 17 15 12 2 240 203 198 200 202 201 200 200 203 205 205 205 206 208 210 211 210 209 208 205 201 201 203 202 200 200 202 204 207 208 209 210 211 210 209 208 208 208 209 211 214 217 220 222 224 226 225 222 220 221 222
341 341 341 342 346 350 353 355 359 5 10 13 14 15 15 15 15 15 16 18 20 22 24 24 23 22 21 20 20 21 23 24 23 22 23 27 39 184 190 193 197 199 197 197 199 203 205 206 208 209 209 210 210 208 207 205 201 200 202 202 201 200 202 204 206 208 209 210 211 210 209 209 209 208 209 210 212 214 217 220 222 225 225 222 220 220 221
340 341 342 343 346 351 354 356 1 9 14 16 17 17 16 15 16 16 18 21 24 27 28 29 28 27 26 25 24 24 25 27 28 28 29 35 48 95 172 184 190 196 198 196 196 199 203 207 209 210 210 211 210 209 207 205 201 198 200 202 201 200 201 203 206 208 209 211 212 211 209 209 210 209 209 210 211 213 216 219 221 223 224 222 219 218 219
339 341 343 344 347 352 355 357 3 11 17 19 20 19 17 16 16 16 19 24 27 29 31 32 32 32 31 30 29 28 28 29 30 31 33 38 49 72 128 166 178 188 196 197 195 195 200 206 210 211 211 212 211 210 207 205 200 198 199 201 201 200 201 203 205 207 209 211 212 212 210 210 210 210 210 210 210 212 215 217 219 221 222 221 218 217 217
338 341 344 345 348 352 354 358 4 12 18 21 22 20 17 16 16 16 19 23 27 30 32 34 35 35 34 34 33 32 32 31 32 33 35 40 50 65 91 133 162 177 188 194 195 195 197 202 207 211 212 212 212 211 209 205 201 198 198 201 201 200 200 203 205 207 208 210 212 213 212 211 210 211 211 211 211 211 212 215 217 219 220 220 218 216 216
337 339 343 346 349 351 353 358 7 13 18 22 22 20 18 16 16 17 20 22 24 27 30 33 35 36 37 36 36 35 35 34 35 36 37 41 49 62 81 108 140 166 179 187 191 195 197 199 202 207 210 212 212 212 210 206 201 198 198 201 202 201 201 202 204 206 208 209 210 212 212 211 211 212 212 211 212 212 212 214 215 216 218 219 218 217 217
336 337 341 347 351 349 350 358 8 14 19 22 21 20 18 17 17 19 21 22 22 24 27 30 32 35 38 39 38 37 37 37 37 38 40 44 49 59 73 94 122 148 167 178 184 190 196 199 200 202 205 207 210 212 211 208 203 199 199 201 202 203 202 203 204 206 208 208 209 210 211 211 211 212 211 211 212 213 213 213 215 215 216 218 218 218 217
335 334 338 347 350 346 347 357 9 14 17 21 21 19 19 19 18 18 20 22 22 22 23 27 30 33 36 39 40 40 40 40 40 40 43 46 50 56 64 75 97 127 149 166 177 184 191 197 201 203 202 202 205 208 210 208 205 201 200 201 203 203 203 204 205 207 208 209 210 211 211 211 211 212 212 212 213 213 214 214 215 214 215 217 219 219 218
335 332 334 342 348 345 343 353 8 13 14 17 21 20 20 21 19 17 18 21 21 21 22 24 28 31 34 36 39 41 42 43 43 44 45 48 51 54 59 64 73 96 125 148 165 176 184 191 198 203 204 202 202 204 205 205 206 204 202 202 204 204 204 205 206 207 209 210 211 212 212 213 213 213 213 213 213 214 214 215 215 214 215 216 219 220 220
334 330 329 335 344 345 341 348 5 11 8 10 18 20 18 18 18 18 18 19 18 19 21 22 26 31 34 36 38 41 43 44 45 47 48 50 53 54 56 58 61 70 90 119 146 165 177 186 193 199 203 204 204 204 203 203 204 204 203 203 205 206 205 205 206 208 209 211 212 211 212 214 215 214 214 214 215 215 216 215 214 214 215 216 218 220 220
334 329 325 328 336 343 342 346 359 6 2 2 11 17 17 16 18 20 20 17 15 17 19 20 23 29 34 37 39 42 44 45 46 47 49 51 53 55 56 58 60 63 72 88 114 144 164 179 189 195 199 202 204 205 204 203 203 203 202 203 206 208 208 207 207 209 211 212 213 212 212 213 215 215 214 214 215 215 216 216 215 215 216 216 218 219 221
334 329 322 321 327 336 342 345 353 358 354 352 0 13 17 16 17 20 20 16 13 14 16 17 20 25 30 34 37 40 44 46 47 48 49 49 50 52 55 57 59 61 66 75 90 117 143 163 180 192 198 201 204 205 205 205 205 203 201 201 204 207 209 209 209 210 211 214 215 214 212 213 215 215 214 214 214 214 215 215 215 215 216 217 218 219 221
335 329 321 315 319 327 335 341 345 343 336 339 353 10 17 15 12 14 17 16 12 11 13 14 14 17 23 29 33 38 43 47 49 50 51 50 50 50 52 55 56 58 61 66 76 91 112 136 160 180 193 200 204 205 206 206 206 205 203 202 203 205 207 209 210 210 212 214 216 215 213 213 215 216 215 214 214 214 215 215 215 215 216 217 218 219 221
338 331 320 311 313 320 328 335 337 327 317 325 344 1 10 14 10 7 9 11 7 7 9 9 9 12 18 24 30 36 41 46 49 51 52 53 51 50 52 54 55 58 61 64 70 77 87 106 133 156 180 194 202 206 208 208 207 206 205 205 205 205 207 208 210 211 212 214 216 215 215 214 214 214 215 214 213 214 215 216 216 215 216 216 217 219 220
340 334 322 310 308 312 320 327 329 323 316 320 332 343 352 2 6 4 3 2 1 1 360 359 6 14 18 22 28 34 39 44 47 48 50 52 51 49 50 50 52 55 59 61 64 69 74 83 97 114 149 182 196 203 207 209 209 208 207 207 207 207 207 208 210 211 213 215 217 216 216 215 214 214 214 214 214 213 214 216 216 215 215 216 217 218 219
342 339 328 314 307 306 310 314 319 324 326 324 323 328 336 341 346 352 354 352 352 351 345 348 2 15 16 17 27 35 39 43 46 47 48 49 49 47 46 45 45 49 53 54 57 61 67 71 74 77 94 149 186 200 206 208 208 209 208 208 209 209 208 209 210 211 213 215 217 217 217 216 214 213 213 214 214 214 214 215 216 216 215 216 217 218 218
344 342 335 323 310 300 298 304 311 319 325 326 322 321 325 327 327 328 335 341 342 339 336 339 351 0 5 14 27 33 36 43 47 48 50 50 49 48 46 44 42 44 47 48 51 56 61 64 64 63 66 89 158 193 203 207 208 209 209 209 209 210 210 210 210 211 212 214 216 217 218 217 215 213 213 214 214 214 214 214 216 216 216 216 217 218 218
347 345 342 333 319 300 288 291 300 308 317 326 328 319 314 312 308 309 317 327 326 320 319 326 335 343 351 4 14 16 27 45 52 51 52 53 51 50 49 47 45 44 43 42 45 51 55 58 61 60 60 69 102 161 192 203 207 210 210 210 210 210 210 210 210 211 212 214 215 216 217 218 217 215 213 213 214 214 214 214 215 217 217 216 217 218 219
349 348 346 340 329 312 296 291 293 299 308 321 330 320 302 292 290 297 311 320 312 302 300 308 321 333 338 341 345 353 12 41 54 55 56 57 56 55 54 52 49 46 41 35 36 41 47 52 55 53 52 56 70 99 167 194 202 208 211 212 211 211 211 211 211 211 212 213 215 216 217 217 217 216 214 213 214 214 214 214 215 216 217 218 218 219 220
350 349 347 342 336 326 313 305 300 298 303 311 320 320 308 292 284 287 298 305 302 298 296 300 312 325 324 319 320 329 342 1 33 55 64 65 64 63 63 61 58 53 44 33 31 35 41 46 46 41 36 36 42 54 99 172 192 202 209 211 213 213 213 212 212 212 212 213 215 216 217 217 218 217 215 214 214 214 214 214 215 216 217 218 219 219 220
350 349 348 344 340 335 328 320 313 307 304 305 307 310 312 304 289 281 280 284 289 293 296 298 303 310 311 308 307 309 314 321 340 29 66 73 73 74 72 70 68 64 54 42 36 36 42 48 47 40 34 33 35 41 56 109 179 196 204 209 212 214 214 214 213 213 213 214 215 216 217 217 217 217 216 214 214 214 214 214 214 215 216 217 219 219 220
350 350 349 347 344 341 338 333 329 324 318 312 308 306 306 303 291 280 275 274 277 282 288 293 293 294 295 297 297 295 294 297 299 299 304 13 81 91 86 78 77 76 68 57 49 45 49 57 58 51 46 46 46 50 57 68 147 192 200 206 209 212 214 215 215 215 215 215 215 216 217 217 218 218 217 215 214 214 214 214 214 215 216 217 219 220 221
353 352 350 348 346 345 344 341 339 335 330 325 320 313 307 301 291 280 273 270 270 273 278 282 284 285 284 284 283 283 281 280 281 279 276 271 254 216 165 119 107 102 89 78 70 62 62 68 66 56 51 61 68 69 72 80 129 190 200 205 206 208 211 214 215 216 216 216 216 217 217 217 218 218 218 217 215 214 214 215 215 215 216 217 218 220 221
356 352 348 346 346 347 346 344 342 339 335 330 325 320 314 308 300 292 283 276 273 273 273 274 275 275 274 272 273 274 274 272 269 266 264 261 256 248 235 211 186 169 154 137 125 113 95 86 72 43 18 30 111 111 103 112 173 203 208 209 207 207 209 212 214 216 217 218 218 218 218 218 218 218 219 218 217 216 216 216 215 215 216 217 218 219 221
355 351 350 351 353 353 351 348 343 339 336 332 328 325 321 316 310 306 300 291 283 280 277 274 272 272 273 274 275 275 274 270 263 258 256 255 255 252 243 231 217 210 208 207 204 202 191 163 140 142 250 268 239 173 147 155 200 214 215 216 214 210 209 209 211 214 216 217 218 219 219 219 218 219 219 219 218 217 216 216 216 216 216 217 218 219 221
355 355 356 357 358 358 356 353 348 343 339 335 331 327 324 320 315 312 309 304 297 292 287 282 280 278 278 280 281 279 276 272 268 262 258 255 253 249 245 240 233 224 218 219 224 225 219 204 186 179 186 209 221 212 198 197 208 216 219 223 222 218 213 211 211 212 213 215 216 218 219 219 219 219 219 219 219 218 217 216 216 217 217 217 218 220 221
356 358 359 0 1 0 357 353 350 347 344 341 337 333 330 326 322 317 312 309 305 301 295 292 291 288 286 286 286 284 280 276 273 270 266 262 256 250 245 243 240 233 226 224 228 232 230 220 208 203 200 200 210 221 225 225 222 220 221 224 225 224 222 218 215 213 213 213 214 216 217 219 219 220 220 220 220 219 218 217 217 217 218 218 219 221 221
357 359 1 2 2 1 357 353 351 349 347 345 344 342 340 337 333 328 322 317 312 307 302 299 297 295 293 292 291 290 288 285 281 275 270 265 262 257 251 246 242 238 234 231 232 234 234 229 224 222 219 216 216 221 228 232 229 222 215 213 216 220 224 224 221 218 216 214 213 214 216 217 218 220 220 220 220 220 219 218 218 218 219 219 220 222 222
358 360 2 3 2 0 358 357 355 354 351 349 348 346 344 340 337 334 330 326 322 317 313 307 303 300 298 296 295 293 293 292 290 285 278 270 265 261 258 253 248 243 238 236 236 236 235 233 231 230 229 228 227 225 224 226 227 222 215 208 206 210 218 223 224 223 221 218 214 213 214 215 217 218 220 221 221 221 221 220 219 219 219 220 221 222 223
357 359 1 2 2 1 1 0 359 358 357 356 354 352 349 345 341 337 334 330 327 324 321 317 312 309 305 302 300 298 296 294 292 291 287 281 272 265 260 257 254 250 245 240 238 238 238 236 234 232 232 232 233 232 228 225 224 225 224 218 209 207 211 217 222 223 224 222 218 215 213 214 215 216 218 220 221 222 222 222 222 221 221 221 222 222 223
355 357 359 1 1 1 1 2 2 1 1 0 359 357 354 351 347 343 340 335 331 327 323 320 316 313 310 307 305 303 301 299 296 292 290 287 282 274 266 260 256 253 250 245 241 239 239 238 238 235 233 232 234 236 235 233 229 228 227 223 215 209 209 212 217 220 223 223 221 219 216 214 214 214 216 218 220 221 222 222 223 223 223 223 223 223 224
355 357 359 0 1 1 1 2 2 3 3 2 1 359 357 355 352 349 346 342 338 334 330 325 321 317 314 310 306 304 302 300 298 296 293 290 287 282 275 267 260 256 253 250 246 242 240 239 239 239 237 234 233 235 237 237 236 234 231 227 220 213 210 210 213 217 220 221 222 222 219 216 214 213 214 216 218 219 221 222 223 223 224 224 224 225 225
Height
10618 10609 10599 10589 10579 10570 10561 10554 10546 10539 10533 10527 10520 10512 10505 10500 10496 10494 10489 10485 10482 10478 10474 10471 10470 10469 10467 10465 10463 10463 10465 10466 10468 10470 10474 10476 10478 10483 10489 10493 10498 10505 10514 10523 10532 10542 10550 10557 10569 10581 10591 10603 10616 10627 10639 10649 10660 10673 10687 10700 10710 10721 10733 10739 10740 10747 10759 10764 10769 10775 10777 10778 10785 10795 10803 10811 10816 10823 10829 10830 10829 10833 10838 10840 10845 10849 10850
10609 10599 10589 10579 10569 10560 10551 10544 10537 10530 10525 10521 10516 10510 10502 10494 10487 10483 10479 10476 10474 10470 10466 10463 10460 10459 10457 10455 10454 10454 10455 10456 10457 10459 10462 10464 10466 10471 10476 10481 10485 10491 10499 10506 10512 10523 10535 10543 10559 10576 10585 10594 10606 10616 10627 10639 10651 10666 10680 10689 10699 10710 10721 10730 10733 10737 10747 10751 10755 10764 10767 10770 10783 10796 10803 10810 10814 10816 10820 10822 10823 10828 10834 10837 10840 10843 10845
10600 10590 10580 10570 10560 10551 10542 10535 10529 10523 10517 10513 10509 10505 10499 10491 10483 10476 10469 10465 10464 10461 10458 10456 10452 10450 10447 10445 10444 10444 10445 10446 10447 10449 10451 10453 10455 10459 10464 10469 10473 10478 10486 10493 10498 10509 10523 10534 10550 10566 10573 10581 10594 10605 10615 10628 10642 10658 10668 10674 10685 10698 10707 10718 10724 10728 10740 10746 10750 10762 10772 10776 10786 10795 10800 10804 10806 10808 10813 10817 10820 10825 10830 10833 10835 10837 10840
10592 10582 10572 10563 10553 10544 10535 10528 10521 10516 10511 10506 10501 10497 10492 10486 10481 10475 10466 10458 10455 10453 10450 10448 10444 10441 10438 10436 10435 10435 10436 10437 10437 10439 10441 10443 10445 10449 10453 10458 10462 10466 10473 10481 10487 10496 10512 10527 10539 10551 10559 10569 10582 10593 10604 10618 10634 10648 10655 10662 10677 10690 10697 10709 10720 10726 10735 10742 10748 10762 10772 10773 10779 10787 10791 10794 10797 10801 10806 10811 10817 10821 10824 10828 10830 10831 10837
10585 10575 10565 10556 10547 10538 10530 10522 10516 10510 10504 10499 10495 10490 10485 10478 10472 10469 10464 10456 10450 10445 10442 10439 10436 10432 10430 10428 10427 10426 10427 10428 10429 10430 10433 10434 10436 10439 10443 10447 10451 10456 10461 10469 10477 10486 10502 10519 10526 10534 10546 10558 10570 10583 10593 10608 10623 10634 10642 10653 10668 10678 10684 10697 10712 10718 10724 10734 10744 10754 10760 10764 10769 10776 10782 10787 10792 10797 10802 10808 10813 10815 10817 10821 10823 10825 10834
10578 10569 10559 10550 10541 10533 10525 10518 10511 10505 10499 10494 10490 10484 10479 10472 10464 10458 10455 10452 10445 10438 10434 10431 10427 10425 10423 10421 10419 10418 10418 10419 10420 10422 10425 10426 10427 10430 10434 10437 10441 10445 10450 10458 10470 10478 10490 10506 10514 10521 10534 10547 10559 10573 10584 10598 10612 10621 10631 10645 10660 10668 10675 10686 10699 10706 10714 10725 10733 10739 10748 10756 10760 10765 10774 10782 10786 10792 10800 10804 10805 10807 10812 10816 10817 10820 10830
10573 10563 10553 10544 10536 10528 10521 10514 10508 10502 10495 10489 10485 10480 10473 10467 10460 10451 10446 10444 10439 10433 10428 10425 10421 10419 10416 10414 10413 10412 10411 10412 10413 10414 10417 10418 10419 10422 10425 10429 10432 10436 10442 10451 10462 10470 10478 10493 10504 10512 10525 10537 10548 10562 10574 10586 10601 10612 10624 10639 10653 10663 10668 10676 10688 10699 10705 10712 10719 10729 10741 10750 10754 10760 10769 10777 10782 10788 10794 10795 10796 10801 10805 10809 10811 10815 10823
10567 10557 10548 10540 10532 10524 10517 10511 10505 10499 10493 10485 10480 10475 10469 10463 10457 10449 10442 10437 10433 10428 10424 10420 10415 10413 10411 10409 10408 10406 10405 10406 10406 10408 10410 10411 10412 10414 10417 10421 10424 10429 10436 10444 10454 10463 10470 10483 10496 10504 10515 10526 10536 10551 10564 10574 10590 10605 10616 10630 10645 10654 10659 10668 10682 10691 10694 10702 10713 10723 10734 10743 10749 10755 10763 10773 10780 10783 10784 10786 10790 10795 10799 10803 10808 10809 10814
10561 10552 10543 10535 10528 10520 10514 10508 10502 10496 10490 10484 10477 10472 10466 10459 10453 10447 10440 10433 10428 10423 10419 10415 10411 10408 10406 10404 10402 10401 10400 10400 10400 10401 10403 10404 10405 10407 10410 10414 10417 10422 10429 10437 10446 10455 10461 10473 10486 10495 10505 10514 10524 10541 10555 10566 10582 10596 10605 10620 10637 10647 10652 10661 10674 10682 10687 10699 10710 10715 10725 10737 10747 10754 10760 10769 10776 10778 10778 10782 10787 10791 10794 10798 10801 10803 10808
10556 10547 10539 10531 10524 10517 10510 10505 10499 10493 10487 10482 10476 10469 10463 10456 10448 10442 10435 10429 10424 10419 10415 10411 10407 10404 10401 10399 10397 10395 10395 10395 10395 10395 10397 10398 10399 10401 10404 10407 10411 10416 10423 10431 10440 10448 10453 10464 10477 10486 10495 10504 10515 10532 10547 10559 10574 10587 10596 10613 10630 10638 10643 10651 10663 10673 10682 10694 10702 10706 10719 10735 10745 10752 10757 10762 10767 10771 10772 10775 10780 10784 10787 10790 10795 10798 10802
10551 10543 10535 10527 10520 10513 10507 10502 10496 10490 10484 10478 10473 10466 10459 10452 10445 10438 10431 10425 10420 10415 10411 10407 10403 10400 10398 10395 10393 10391 10390 10391 10390 10391 10392 10392 10393 10396 10398 10402 10406 10411 10418 10425 10433 10440 10446 10456 10468 10477 10485 10496 10508 10525 10539 10552 10567 10578 10589 10605 10620 10628 10633 10642 10654 10664 10674 10686 10694 10699 10712 10728 10738 10746 10749 10748 10751 10756 10760 10764 10771 10777 10780 10784 10789 10792 10794
10547 10539 10531 10524 10517 10510 10505 10499 10493 10487 10480 10475 10469 10463 10456 10449 10442 10436 10429 10423 10417 10412 10408 10405 10401 10397 10395 10392 10390 10388 10386 10386 10386 10386 10387 10388 10389 10392 10394 10397 10402 10407 10414 10421 10427 10433 10439 10448 10460 10470 10479 10489 10501 10517 10532 10545 10559 10570 10582 10597 10611 10619 10627 10637 10648 10658 10669 10680 10687 10693 10706 10721 10732 10739 10736 10731 10735 10744 10752 10758 10761 10763 10769 10775 10778 10781 10785
10544 10536 10528 10521 10515 10508 10502 10497 10491 10484 10478 10472 10467 10460 10454 10447 10440 10433 10427 10421 10416 10410 10406 10403 10399 10395 10392 10389 10387 10385 10383 10382 10382 10382 10383 10384 10385 10388 10390 10393 10397 10403 10409 10415 10421 10428 10435 10443 10454 10464 10473 10483 10495 10510 10525 10538 10551 10563 10575 10589 10602 10613 10621 10631 10641 10653 10664 10672 10678 10686 10700 10714 10723 10724 10719 10718 10726 10737 10747 10751 10747 10747 10755 10764 10768 10770 10775
10541 10533 10525 10519 10512 10506 10501 10495 10489 10483 10477 10471 10465 10458 10452 10445 10439 10432 10425 10419 10414 10410 10405 10401 10397 10393 10390 10387 10384 10382 10380 10380 10379 10379 10380 10381 10382 10384 10386 10389 10393 10399 10405 10410 10416 10424 10430 10438 10448 10459 10469 10478 10489 10503 10517 10531 10543 10555 10567 10582 10595 10605 10614 10623 10633 10644 10653 10660 10667 10677 10690 10701 10706 10705 10704 10709 10716 10724 10733 10736 10735 10740 10751 10758 10761 10762 10766
10538 10530 10523 10517 10510 10505 10499 10494 10488 10481 10476 10470 10463 10457 10451 10444 10438 10432 10425 10419 10414 10409 10404 10400 10395 10392 10388 10385 10383 10380 10379 10378 10377 10377 10377 10378 10380 10381 10383 10385 10389 10394 10400 10406 10412 10419 10426 10434 10443 10454 10464 10472 10481 10494 10508 10523 10535 10546 10559 10575 10586 10595 10604 10613 10622 10631 10639 10647 10656 10666 10677 10685 10689 10692 10698 10701 10705 10714 10722 10725 10729 10739 10747 10750 10754 10756 10757
10535 10528 10521 10515 10509 10504 10499 10493 10487 10481 10475 10469 10463 10457 10450 10443 10437 10431 10425 10419 10414 10409 10404 10399 10394 10390 10387 10384 10382 10379 10378 10376 10375 10375 10375 10375 10377 10378 10380 10383 10386 10391 10396 10402 10408 10415 10422 10429 10438 10449 10458 10465 10473 10484 10498 10514 10527 10537 10549 10564 10576 10585 10595 10604 10612 10621 10629 10639 10648 10655 10664 10672 10679 10687 10693 10695 10702 10711 10717 10719 10726 10735 10737 10738 10743 10749 10751
10532 10525 10519 10513 10507 10503 10498 10492 10486 10481 10475 10469 10463 10457 10450 10443 10437 10431 10425 10419 10414 10409 10404 10399 10394 10390 10386 10383 10381 10378 10377 10375 10374 10373 10373 10374 10375 10376 10377 10380 10383 10388 10393 10399 10405 10411 10417 10424 10433 10443 10451 10458 10465 10476 10490 10505 10517 10527 10540 10556 10567 10577 10588 10596 10603 10612 10622 10632 10639 10646 10655 10664 10672 10679 10685 10692 10702 10709 10711 10715 10720 10725 10729 10731 10736 10746 10754
10529 10523 10517 10511 10507 10502 10497 10491 10486 10481 10475 10469 10463 10457 10451 10444 10438 10432 10427 10421 10415 10409 10404 10399 10394 10390 10386 10383 10380 10378 10376 10374 10373 10373 10373 10373 10374 10375 10376 10378 10380 10385 10390 10396 10401 10407 10414 10421 10429 10436 10443 10451 10459 10469 10483 10497 10508 10520 10535 10550 10562 10572 10581 10589 10596 10604 10616 10625 10629 10636 10649 10659 10665 10672 10679 10688 10698 10701 10702 10707 10709 10714 10723 10728 10733 10747 10762
10527 10521 10516 10510 10506 10501 10496 10492 10487 10481 10475 10470 10464 10458 10452 10446 10440 10434 10428 10422 10416 10411 10405 10401 10396 10391 10387 10383 10380 10378 10376 10375 10374 10373 10373 10372 10373 10374 10376 10377 10379 10383 10388 10393 10399 10404 10409 10416 10423 10429 10435 10442 10452 10463 10475 10488 10502 10515 10528 10541 10553 10563 10573 10582 10590 10599 10609 10616 10620 10629 10641 10650 10656 10664 10673 10682 10689 10690 10692 10698 10701 10707 10717 10726 10733 10747 10762
10525 10519 10514 10509 10505 10501 10496 10492 10487 10482 10476 10470 10465 10459 10454 10448 10442 10437 10431 10425 10419 10413 10408 10403 10398 10393 10389 10385 10381 10379 10377 10375 10374 10373 10373 10373 10373 10374 10375 10377 10379 10382 10386 10392 10396 10401 10406 10412 10419 10424 10430 10437 10447 10458 10468 10481 10495 10508 10519 10530 10540 10551 10561 10572 10581 10590 10600 10607 10612 10621 10632 10639 10646 10656 10664 10671 10678 10682 10687 10693 10697 10701 10712 10724 10734 10746 10756
10523 10518 10513 10508 10504 10500 10496 10492 10487 10482 10477 10471 10466 10461 10456 10450 10445 10440 10434 10429 10423 10417 10411 10406 10401 10396 10391 10387 10384 10380 10378 10376 10375 10374 10373 10373 10373 10374 10375 10376 10379 10382 10386 10390 10395 10399 10404 10410 10415 10420 10426 10433 10441 10451 10461 10474 10487 10499 10511 10522 10534 10544 10554 10563 10569 10577 10586 10593 10599 10610 10622 10630 10637 10645 10652 10659 10667 10674 10680 10686 10691 10696 10707 10722 10734 10743 10750
10521 10516 10512 10507 10504 10500 10496 10492 10488 10483 10477 10472 10467 10463 10458 10453 10448 10443 10438 10433 10427 10421 10415 10409 10404 10399 10395 10390 10386 10383 10380 10378 10376 10375 10375 10374 10374 10375 10376 10377 10379 10382 10386 10389 10393 10398 10403 10408 10412 10417 10423 10429 10436 10445 10455 10465 10478 10491 10503 10515 10527 10539 10548 10557 10563 10569 10576 10582 10589 10601 10614 10621 10628 10636 10643 10651 10660 10667 10672 10678 10685 10692 10702 10716 10728 10737 10743
10519 10515 10511 10507 10503 10500 10496 10492 10488 10483 10478 10474 10469 10464 10460 10456 10451 10446 10441 10436 10430 10424 10419 10413 10408 10403 10399 10394 10390 10386 10383 10380 10378 10377 10376 10376 10376 10376 10377 10378 10380 10383 10386 10389 10393 10397 10401 10405 10410 10415 10421 10427 10433 10442 10450 10460 10472 10484 10494 10505 10517 10530 10540 10548 10554 10562 10571 10577 10583 10593 10604 10613 10622 10630 10638 10646 10655 10662 10668 10675 10681 10687 10695 10707 10720 10729 10736
10517 10514 10510 10506 10502 10499 10496 10493 10489 10484 10480 10475 10471 10467 10463 10458 10454 10449 10445 10439 10434 10428 10423 10418 10412 10407 10403 10398 10394 10390 10386 10383 10381 10379 10378 10378 10378 10378 10379 10380 10382 10384 10387 10390 10394 10397 10401 10405 10410 10415 10420 10426 10432 10439 10448 10457 10467 10478 10487 10496 10507 10519 10530 10537 10544 10553 10562 10567 10572 10582 10595 10606 10616 10623 10629 10637 10645 10653 10661 10668 10675 10681 10688 10698 10710 10720 10728
10516 10512 10509 10505 10502 10499 10496 10493 10489 10485 10481 10477 10473 10469 10465 10461 10457 10453 10448 10443 10438 10432 10427 10422 10417 10412 10407 10403 10398 10394 10391 10387 10385 10382 10381 10380 10380 10380 10380 10382 10383 10385 10388 10392 10395 10398 10401 10405 10410 10415 10421 10427 10432 10439 10446 10455 10464 10474 10483 10491 10500 10510 10519 10526 10533 10542 10548 10554 10564 10577 10590 10601 10608 10613 10619 10627 10635 10642 10650 10657 10665 10673 10680 10691 10703 10713 10720
10514 10511 10508 10505 10502 10499 10497 10494 10490 10486 10482 10478 10475 10472 10468 10464 10460 10456 10451 10446 10441 10436 10431 10426 10421 10416 10412 10407 10403 10399 10395 10392 10389 10386 10384 10383 10382 10382 10383 10384 10385 10387 10390 10392 10396 10399 10402 10405 10409 10414 10421 10427 10433 10439 10445 10453 10462 10472 10480 10487 10496 10504 10510 10514 10522 10531 10538 10548 10559 10568 10579 10591 10597 10600 10607 10618 10626 10634 10642 10649 10656 10665 10675 10685 10696 10705 10712
10512 10509 10507 10504 10501 10499 10497 10494 10490 10487 10483 10480 10477 10474 10471 10467 10463 10459 10455 10450 10445 10441 10436 10431 10426 10421 10416 10412 10408 10404 10400 10396 10393 10391 10389 10387 10385 10385 10385 10386 10387 10389 10391 10393 10396 10399 10402 10405 10408 10412 10418 10425 10432 10438 10444 10452 10460 10469 10476 10483 10490 10497 10504 10511 10519 10526 10533 10540 10546 10553 10563 10575 10581 10587 10599 10612 10620 10629 10637 10644 10652 10661 10671 10680 10688 10696 10704
10511 10508 10506 10504 10501 10498 10496 10494 10491 10487 10484 10481 10479 10476 10473 10469 10466 10462 10458 10454 10449 10445 10440 10436 10431 10426 10421 10417 10413 10409 10405 10401 10398 10396 10393 10391 10389 10388 10387 10388 10389 10390 10392 10394 10397 10400 10403 10406 10409 10412 10416 10421 10428 10434 10441 10449 10457 10465 10472 10478 10484 10491 10500 10508 10516 10523 10530 10536 10542 10550 10560 10568 10573 10585 10601 10612 10620 10629 10637 10643 10650 10659 10668 10675 10681 10687 10695
10510 10506 10504 10503 10501 10498 10496 10494 10491 10488 10485 10483 10480 10477 10474 10471 10468 10464 10461 10457 10453 10449 10445 10441 10436 10431 10427 10423 10419 10415 10411 10407 10404 10401 10398 10395 10393 10392 10391 10391 10391 10392 10393 10395 10398 10401 10404 10407 10410 10413 10417 10421 10425 10430 10436 10443 10452 10461 10469 10476 10480 10486 10495 10504 10512 10520 10527 10533 10539 10550 10561 10568 10576 10589 10602 10611 10619 10627 10633 10639 10649 10658 10665 10671 10676 10681 10689
10509 10506 10503 10501 10500 10498 10496 10493 10490 10488 10486 10484 10481 10478 10475 10472 10470 10467 10463 10460 10457 10453 10449 10445 10441 10436 10432 10428 10424 10420 10416 10412 10409 10406 10403 10400 10398 10396 10395 10394 10394 10395 10396 10397 10399 10401 10404 10407 10410 10414 10417 10422 10426 10429 10434 10440 10446 10454 10465 10474 10480 10485 10492 10501 10510 10517 10522 10526 10533 10544 10555 10564 10573 10586 10598 10608 10616 10623 10629 10637 10646 10654 10660 10666 10671 10676 10684
10508 10505 10502 10500 10498 10497 10495 10493 10490 10488 10487 10485 10483 10480 10477 10474 10472 10469 10466 10463 10460 10456 10452 10449 10445 10441 10438 10434 10430 10426 10421 10417 10414 10411 10407 10404 10402 10400 10399 10399 10398 10398 10399 10399 10401 10403 10405 10408 10411 10414 10417 10421 10425 10429 10434 10438 10442 10448 10459 10471 10481 10488 10495 10503 10510 10516 10520 10523 10529 10540 10552 10560 10566 10577 10590 10600 10609 10618 10626 10634 10643 10650 10656 10661 10666 10672 10679
10507 10505 10502 10499 10497 10496 10494 10492 10490 10488 10487 10486 10484 10481 10478 10476 10473 10470 10467 10465 10462 10459 10456 10452 10449 10445 10442 10438 10435 10430 10426 10422 10418 10415 10411 10409 10406 10405 10403 10402 10402 10402 10402 10402 10403 10404 10406 10408 10411 10414 10417 10421 10424 10428 10432 10436 10440 10445 10453 10462 10471 10481 10491 10500 10508 10514 10518 10521 10526 10537 10551 10560 10564 10573 10585 10595 10603 10611 10619 10626 10635 10643 10650 10655 10661 10667 10673
10506 10503 10501 10498 10496 10494 10493 10491 10490 10488 10487 10486 10485 10481 10479 10477 10474 10471 10469 10467 10464 10461 10458 10455 10452 10449 10445 10442 10438 10434 10430 10426 10423 10419 10416 10413 10412 10410 10409 10407 10406 10405 10405 10405 10405 10406 10407 10409 10411 10414 10417 10421 10424 10428 10431 10435 10439 10444 10450 10456 10461 10469 10478 10488 10498 10506 10511 10515 10521 10533 10546 10554 10559 10569 10580 10591 10600 10608 10614 10620 10628 10636 10643 10649 10655 10661 10666
10505 10502 10500 10497 10495 10493 10491 10490 10489 10487 10486 10485 10484 10481 10479 10477 10475 10473 10470 10467 10465 10462 10460 10457 10454 10451 10448 10444 10441 10437 10434 10430 10427 10424 10420 10418 10417 10416 10414 10412 10411 10410 10409 10408 10408 10408 10409 10410 10412 10414 10417 10420 10423 10427 10430 10434 10438 10443 10448 10454 10459 10464 10471 10479 10488 10496 10502 10505 10513 10527 10539 10546 10554 10565 10576 10586 10595 10603 10609 10614 10621 10629 10636 10642 10648 10654 10659
10503 10501 10498 10496 10494 10493 10491 10489 10487 10486 10485 10483 10482 10481 10480 10478 10476 10473 10471 10468 10466 10463 10461 10459 10456 10453 10450 10447 10444 10441 10437 10434 10431 10428 10425 10423 10421 10420 10418 10417 10416 10414 10412 10411 10410 10410 10411 10412 10413 10415 10417 10419 10422 10425 10428 10432 10436 10441 10446 10451 10456 10461 10468 10475 10482 10491 10498 10504 10513 10525 10535 10542 10552 10563 10573 10580 10588 10595 10600 10606 10613 10621 10629 10635 10641 10647 10653
10502 10499 10497 10495 10493 10492 10490 10488 10486 10485 10484 10482 10481 10481 10480 10478 10476 10474 10471 10469 10467 10464 10462 10460 10457 10455 10452 10450 10447 10444 10441 10438 10435 10433 10430 10427 10425 10424 10422 10421 10420 10418 10416 10415 10415 10414 10414 10414 10415 10417 10419 10420 10422 10424 10427 10430 10434 10438 10443 10448 10453 10459 10465 10472 10479 10487 10495 10502 10511 10521 10529 10537 10547 10557 10565 10571 10579 10587 10594 10600 10606 10614 10622 10629 10634 10639 10645
10501 10498 10496 10494 10492 10491 10489 10486 10484 10482 10482 10481 10481 10480 10479 10478 10476 10473 10471 10469 10467 10465 10463 10460 10458 10456 10454 10452 10449 10447 10445 10442 10440 10437 10435 10432 10430 10428 10427 10426 10425 10423 10421 10420 10420 10419 10417 10417 10417 10419 10420 10422 10423 10425 10427 10429 10433 10436 10440 10445 10450 10455 10462 10468 10475 10482 10489 10496 10504 10513 10521 10529 10539 10548 10556 10563 10571 10579 10586 10594 10599 10605 10613 10620 10626 10631 10636
10500 10497 10495 10493 10491 10489 10488 10485 10483 10481 10480 10480 10479 10479 10478 10477 10475 10473 10471 10469 10467 10465 10463 10461 10459 10457 10455 10453 10452 10450 10448 10445 10443 10441 10439 10437 10435 10433 10432 10430 10429 10428 10426 10426 10425 10423 10422 10421 10421 10422 10422 10423 10424 10425 10427 10429 10432 10435 10438 10442 10446 10451 10457 10463 10470 10477 10483 10490 10497 10505 10513 10522 10532 10540 10549 10556 10564 10571 10579 10587 10592 10598 10606 10613 10619 10624 10628
10498 10496 10494 10492 10490 10488 10487 10485 10483 10480 10479 10478 10478 10478 10476 10475 10474 10472 10470 10468 10466 10465 10463 10461 10459 10457 10456 10454 10453 10452 10450 10447 10445 10444 10442 10441 10439 10437 10436 10434 10433 10431 10430 10429 10428 10427 10426 10424 10424 10424 10424 10425 10425 10426 10427 10429 10431 10434 10437 10440 10443 10447 10452 10458 10464 10470 10477 10484 10490 10497 10506 10515 10523 10532 10541 10550 10558 10566 10575 10582 10588 10595 10602 10608 10613 10617 10620
10498 10495 10493 10491 10489 10487 10485 10483 10481 10480 10478 10477 10476 10476 10475 10474 10473 10471 10469 10467 10465 10464 10462 10460 10458 10457 10455 10454 10453 10452 10451 10449 10447 10446 10444 10443 10442 10441 10439 10437 10435 10434 10433 10433 10432 10430 10428 10427 10426 10426 10427 10427 10427 10427 10428 10429 10431 10432 10435 10437 10440 10444 10448 10454 10459 10465 10471 10478 10483 10490 10499 10507 10515 10524 10534 10542 10550 10559 10567 10574 10581 10587 10592 10597 10601 10604 10608
10497 10495 10493 10490 10488 10486 10484 10482 10480 10478 10477 10475 10474 10473 10473 10472 10471 10469 10467 10465 10464 10462 10461 10460 10458 10456 10455 10453 10452 10452 10451 10450 10448 10447 10446 10445 10444 10443 10441 10440 10438 10437 10436 10436 10435 10433 10431 10429 10429 10430 10430 10429 10429 10429 10429 10429 10430 10431 10433 10435 10438 10441 10446 10450 10455 10460 10466 10472 10478 10484 10492 10500 10507 10516 10525 10534 10542 10550 10557 10564 10570 10575 10580 10585 10589 10594 10601
10497 10494 10492 10490 10487 10485 10483 10480 10478 10477 10475 10473 10472 10471 10470 10469 10467 10466 10465 10463 10462 10460 10459 10458 10456 10455 10453 10452 10450 10450 10450 10450 10449 10448 10447 10446 10445 10444 10442 10441 10440 10439 10438 10437 10436 10435 10433 10432 10432 10432 10432 10432 10431 10430 10430 10430 10430 10430 10432 10433 10436 10439 10442 10446 10450 10455 10461 10466 10472 10478 10485 10493 10500 10508 10517 10526 10533 10541 10548 10555 10561 10567 10573 10578 10584 10590 10596
10496 10493 10491 10488 10486 10483 10481 10479 10477 10475 10473 10471 10469 10468 10467 10466 10464 10463 10461 10460 10459 10458 10457 10456 10454 10452 10450 10449 10448 10448 10448 10448 10448 10448 10447 10446 10445 10444 10443 10442 10441 10440 10439 10438 10438 10437 10435 10434 10434 10434 10433 10433 10432 10431 10431 10431 10430 10430 10431 10432 10434 10436 10439 10442 10446 10450 10455 10460 10465 10471 10478 10486 10494 10502 10511 10519 10526 10533 10540 10546 10552 10559 10566 10571 10577 10581 10586
10496 10494 10491 10488 10485 10482 10480 10477 10475 10473 10471 10469 10468 10466 10465 10463 10461 10459 10458 10457 10456 10454 10454 10453 10452 10450 10448 10446 10446 10446 10446 10446 10446 10446 10445 10445 10445 10444 10443 10442 10441 10441 10440 10439 10438 10437 10437 10436 10435 10434 10434 10433 10433 10432 10431 10431 10431 10430 10430 10431 10432 10434 10436 10439 10443 10446 10451 10456 10461 10466 10473 10480 10487 10494 10503 10511 10518 10525 10532 10538 10546 10553 10559 10564 10568 10572 10576
10498 10495 10492 10489 10485 10482 10479 10477 10474 10472 10470 10468 10466 10464 10463 10461 10459 10457 10456 10454 10453 10451 10450 10449 10448 10447 10445 10444 10444 10444 10444 10444 10444 10443 10443 10443 10443 10443 10442 10441 10441 10440 10440 10439 10438 10437 10437 10436 10435 10435 10434 10434 10433 10432 10431 10431 10431 10430 10430 10430 10431 10432 10434 10436 10439 10442 10446 10450 10455 10461 10467 10474 10480 10487 10494 10501 10508 10516 10524 10532 10539 10546 10551 10555 10559 10563 10566
10498 10494 10491 10487 10484 10481 10479 10476 10474 10472 10470 10468 10465 10463 10461 10459 10457 10456 10454 10452 10451 10449 10448 10446 10445 10444 10443 10442 10441 10442 10442 10441 10440 10440 10440 10440 10440 10440 10440 10440 10439 10439 10438 10438 10437 10437 10436 10436 10435 10434 10434 10433 10433 10432 10431 10431 10430 10430 10430 10430 10431 10432 10433 10434 10436 10438 10441 10445 10450 10455 10460 10466 10472 10479 10485 10492 10500 10508 10516 10523 10530 10536 10541 10546 10550 10553 10557
10497 10494 10490 10487 10483 10480 10478 10476 10474 10471 10469 10467 10465 10463 10461 10458 10456 10454 10452 10451 10449 10447 10446 10444 10442 10441 10440 10439 10438 10438 10438 10437 10437 10437 10437 10437 10436 10436 10437 10437 10437 10437 10436 10436 10436 10435 10435 10435 10434 10434 10433 10433 10432 10432 10431 10431 10430 10430 10430 10430 10430 10431 10431 10432 10434 10435 10438 10441 10445 10449 10454 10459 10465 10471 10478 10485 10492 10499 10506 10514 10521 10527 10533 10538 10541 10544 10550
10497 10493 10490 10487 10484 10481 10479 10477 10474 10471 10469 10466 10463 10461 10459 10457 10455 10453 10451 10449 10447 10446 10444 10442 10440 10439 10437 10436 10435 10434 10433 10433 10433 10432 10432 10432 10432 10433 10433 10433 10433 10433 10433 10433 10433 10433 10433 10433 10433 10432 10432 10432 10431 10431 10431 10430 10430 10429 10429 10429 10430 10430 10430 10431 10432 10433 10435 10437 10440 10444 10448 10453 10458 10464 10470 10477 10483 10489 10496 10504 10511 10517 10524 10529 10533 10538 10545
10496 10493 10490 10487 10485 10482 10480 10477 10474 10471 10468 10465 10462 10460 10457 10455 10453 10451 10449 10447 10445 10444 10442 10440 10438 10437 10435 10434 10432 10431 10430 10429 10428 10427 10427 10427 10427 10428 10429 10429 10429 10429 10429 10430 10430 10430 10430 10430 10430 10430 10430 10430 10429 10429 10429 10429 10429 10428 10428 10428 10429 10429 10429 10429 10430 10431 10432 10434 10437 10440 10444 10448 10452 10457 10462 10468 10474 10480 10487 10495 10501 10507 10513 10519 10525 10530 10537
10496 10493 10490 10487 10484 10481 10478 10475 10472 10470 10467 10464 10461 10459 10457 10454 10452 10450 10448 10445 10443 10441 10440 10438 10436 10434 10432 10431 10429 10428 10427 10426 10425 10423 10423 10422 10423 10423 10423 10424 10424 10424 10425 10425 10426 10426 10427 10427 10427 10427 10427 10427 10427 10427 10427 10427 10427 10427 10427 10427 10428 10428 10428 10428 10428 10429 10430 10431 10433 10436 10439 10442 10446 10450 10455 10460 10466 10472 10479 10485 10492 10498 10504 10511 10517 10522 10528
10495 10492 10490 10487 10483 10480 10477 10474 10471 10468 10465 10463 10460 10458 10455 10453 10451 10449 10447 10444 10442 10440 10438 10436 10434 10432 10430 10428 10426 10425 10423 10422 10421 10420 10418 10418 10418 10418 10418 10418 10418 10418 10419 10420 10421 10422 10422 10422 10423 10423 10424 10424 10424 10424 10424 10424 10424 10424 10425 10426 10426 10426 10426 10426 10426 10427 10427 10429 10430 10432 10435 10438 10441 10445 10449 10453 10457 10463 10469 10475 10481 10488 10494 10501 10507 10513 10518
10495 10492 10489 10486 10483 10480 10477 10474 10471 10468 10465 10462 10459 10457 10454 10452 10450 10447 10445 10443 10441 10439 10436 10434 10432 10430 10428 10426 10424 10422 10420 10419 10417 10415 10414 10413 10413 10413 10413 10413 10413 10413 10413 10414 10415 10416 10417 10417 10418 10419 10419 10420 10420 10420 10420 10420 10421 10421 10422 10423 10423 10424 10424 10424 10425 10425 10425 10426 10427 10429 10431 10434 10437 10439 10442 10446 10450 10454 10459 10465 10470 10477 10483 10490 10496 10501 10506